{"data":{"norad_id":57676,"intl_designator":"2023-124P","name":"STARLINK-30313","alt_names":[],"object_type":"PAYLOAD","status":"ACTIVE","operator":null,"country":"US","launch_date":"2023-08-22","launch_site_code":"AFWTR","launch_vehicle":null,"mission":null,"orbit_class":"UNKNOWN","rcs_meters":null,"size_class":null,"mass_kg":null,"dimensions":null,"purposes":["comms"],"wikipedia_slug":null,"has_3d_model":false,"image_url":null,"decayed_at":null,"tle_current":{"epoch":"2026-09-20T13:42:50.137632Z","epoch_age_seconds":125523,"freshness":"FRESH","line1":"1 57676U 23124P   26263.57141363  .00000938  00000+0  38887-4 0  9999","line2":"2 57676  53.1621  21.0530 0000938  77.9469 282.1639 15.34400542173419","mean_motion":15.34400542,"eccentricity":9.38e-5,"inclination_deg":53.1621,"raan_deg":21.053,"arg_perigee_deg":77.9469,"mean_anomaly_deg":282.1639,"bstar":3.8887e-5,"rev_number":17341,"period_min":93.847724931265,"perigee_km":462.05995860593,"apogee_km":463.34329993278,"semimajor_km":6840.8386292694,"source":"CELESTRAK","updated_at":"2026-09-21T09:00:33.671883Z"}}}